"Sample Date","Sample Time","Sample Value","Units","Flow Rate","Sample Interval","Number Channels","Micron Size 0","Counts/Channel 0","Micron Size 1","Counts/Channel 1","Micron Size 2","Counts/Channel 2","Micron Size 3","Counts/Channel 3","Micron Size 4","Counts/Channel 4","Micron Size 5","Counts/Channel 5","Micron Size 6","Counts/Channel 6","Micron Size 7","Counts/Channel 7","Micron Size 8","Counts/Channel 8","Micron Size 9","Counts/Channel 9","Micron Size 10","Counts/Channel 10","Micron Size 11","Counts/Channel 11","Micron Size 12","Counts/Channel 12","Micron Size 13","Counts/Channel 13","Micron Size 14","Counts/Channel 14","Micron Size 15","Counts/Channel 15","Micron Size 16","Counts/Channel 16","Micron Size 17","Counts/Channel 17","Micron Size 18","Counts/Channel 18","Micron Size 19","Counts/Channel 19","Micron Size 20","Counts/Channel 20","Micron Size 21","Counts/Channel 21","Micron Size 22","Counts/Channel 22","Micron Size 23","Counts/Channel 23","Micron Size 24","Counts/Channel 24","Micron Size 25","Counts/Channel 25","Micron Size 26","Counts/Channel 26","Micron Size 27","Counts/Channel 27","Micron Size 28","Counts/Channel 28","Micron Size 29","Counts/Channel 29","Micron Size 30","Counts/Channel 30","Micron Size 31","Counts/Channel 31"
"03/12/08","17:00:02",28784.000,"cc",28326.807,6.00,6,0.100,26135.000,0.200,1115.000,0.300,522.000,0.500,726.000,1.000,286.000,5.000,0
"03/12/08","17:00:08",28912.000,"cc",28254.668,6.00,6,0.100,26332.000,0.200,1086.000,0.300,489.000,0.500,711.000,1.000,294.000,5.000,0
"03/12/08","17:00:14",28695.000,"cc",28245.088,6.00,6,0.100,26069.000,0.200,1160.000,0.300,504.000,0.500,685.000,1.000,277.000,5.000,0
"03/12/08","17:00:20",28792.000,"cc",28424.854,6.00,6,0.100,26157.000,0.200,1081.000,0.300,540.000,0.500,733.000,1.000,281.000,5.000,0
"03/12/08","17:00:26",28498.000,"cc",28328.748,6.00,6,0.100,25898.000,0.200,1085.000,0.300,519.000,0.500,695.000,1.000,301.000,5.000,0
"03/12/08","17:00:32",28812.000,"cc",28315.322,6.00,6,0.100,26222.000,0.200,1061.000,0.300,565.000,0.500,695.000,1.000,269.000,5.000,0
"03/12/08","17:00:38",28621.000,"cc",28369.869,6.00,6,0.100,25965.000,0.200,1051.000,0.300,521.000,0.500,774.000,1.000,310.000,5.000,0
"03/12/08","17:00:44",28571.000,"cc",28309.248,6.00,6,0.100,26017.000,0.200,1034.000,0.300,560.000,0.500,687.000,1.000,273.000,5.000,0
"03/12/08","17:00:50",28730.000,"cc",28268.695,6.00,6,0.100,26073.000,0.200,1060.000,0.300,552.000,0.500,758.000,1.000,287.000,5.000,0
"03/12/08","17:00:56",28670.000,"cc",28324.443,6.00,6,0.100,26009.000,0.200,1047.000,0.300,572.000,0.500,736.000,1.000,306.000,5.000,0
"03/12/08","17:01:02",28296.000,"cc",28330.094,6.00,6,0.100,25635.000,0.200,1072.000,0.300,545.000,0.500,745.000,1.000,299.000,5.000,0
"03/12/08","17:01:08",28532.000,"cc",28301.162,6.00,6,0.100,25843.000,0.200,1026.000,0.300,564.000,0.500,795.000,1.000,304.000,5.000,0
"03/12/08","17:01:14",28644.000,"cc",28333.022,6.00,6,0.100,25905.000,0.200,1096.000,0.300,543.000,0.500,800.000,1.000,300.000,5.000,0
"03/12/08","17:01:20",28478.000,"cc",28309.781,6.00,6,0.100,25757.000,0.200,1079.000,0.300,614.000,0.500,729.000,1.000,299.000,5.000,0
"03/12/08","17:01:26",28718.000,"cc",28236.381,6.00,6,0.100,25960.000,0.200,1058.000,0.300,570.000,0.500,808.000,1.000,322.000,5.000,0
"03/12/08","17:01:32",28481.000,"cc",28253.926,6.00,6,0.100,25709.000,0.200,1110.000,0.300,575.000,0.500,733.000,1.000,354.000,5.000,0
"03/12/08","17:01:38",28486.000,"cc",28328.543,6.00,6,0.100,25797.000,0.200,1018.000,0.300,564.000,0.500,769.000,1.000,338.000,5.000,0
"03/12/08","17:01:44",28814.000,"cc",28354.959,6.00,6,0.100,26098.000,0.200,1079.000,0.300,561.000,0.500,757.000,1.000,319.000,5.000,0
"03/12/08","17:01:50",28373.000,"cc",28245.025,6.00,6,0.100,25662.000,0.200,1075.000,0.300,581.000,0.500,758.000,1.000,297.000,5.000,0
"03/12/08","17:01:56",28421.000,"cc",28395.430,6.00,6,0.100,25931.000,0.200,998.000,0.300,537.000,0.500,672.000,1.000,283.000,5.000,0
"03/12/08","17:02:02",28309.000,"cc",28401.031,6.00,6,0.100,25712.000,0.200,994.000,0.300,545.000,0.500,745.000,1.000,313.000,5.000,0
"03/12/08","17:02:08",28192.000,"cc",28301.199,6.00,6,0.100,25601.000,0.200,1031.000,0.300,536.000,0.500,701.000,1.000,323.000,5.000,0
"03/12/08","17:02:14",28289.000,"cc",28320.846,6.00,6,0.100,25711.000,0.200,994.000,0.300,544.000,0.500,739.000,1.000,301.000,5.000,0
"03/12/08","17:02:20",28130.000,"cc",28346.783,6.00,6,0.100,25465.000,0.200,1084.000,0.300,532.000,0.500,741.000,1.000,308.000,5.000,0
"03/12/08","17:02:26",27958.000,"cc",28380.816,6.00,6,0.100,25235.000,0.200,1073.000,0.300,572.000,0.500,769.000,1.000,309.000,5.000,0
"03/12/08","17:02:32",27902.000,"cc",28331.504,6.00,6,0.100,25376.000,0.200,999.000,0.300,529.000,0.500,710.000,1.000,288.000,5.000,0
"03/12/08","17:02:38",28342.000,"cc",28267.148,6.00,6,0.100,25703.000,0.200,1028.000,0.300,539.000,0.500,738.000,1.000,334.000,5.000,0
"03/12/08","17:02:44",28015.000,"cc",28270.063,6.00,6,0.100,25507.000,0.200,976.000,0.300,502.000,0.500,722.000,1.000,308.000,5.000,0
"03/12/08","17:02:50",27932.000,"cc",28363.979,6.00,6,0.100,25387.000,0.200,1038.000,0.300,543.000,0.500,670.000,1.000,294.000,5.000,0
"03/12/08","17:02:56",27869.000,"cc",28294.684,6.00,6,0.100,25250.000,0.200,1064.000,0.300,525.000,0.500,737.000,1.000,293.000,5.000,0
"03/12/08","17:03:02",27938.000,"cc",28302.328,6.00,6,0.100,25408.000,0.200,1007.000,0.300,496.000,0.500,713.000,1.000,314.000,5.000,0
"03/12/08","17:03:08",27918.000,"cc",28310.963,6.00,6,0.100,25298.000,0.200,1042.000,0.300,553.000,0.500,715.000,1.000,310.000,5.000,0
"03/12/08","17:03:14",28203.000,"cc",28404.180,6.00,6,0.100,25587.000,0.200,1029.000,0.300,558.000,0.500,724.000,1.000,305.000,5.000,0
"03/12/08","17:03:20",28181.000,"cc",28352.045,6.00,6,0.100,25546.000,0.200,1038.000,0.300,568.000,0.500,711.000,1.000,318.000,5.000,0
"03/12/08","17:03:26",27983.000,"cc",28249.811,6.00,6,0.100,25346.000,0.200,1046.000,0.300,575.000,0.500,704.000,1.000,312.000,5.000,0
"03/12/08","17:03:32",28207.000,"cc",28322.934,6.00,6,0.100,25590.000,0.200,1078.000,0.300,519.000,0.500,709.000,1.000,311.000,5.000,0
"03/12/08","17:03:38",27649.000,"cc",28331.510,6.00,6,0.100,25160.000,0.200,957.000,0.300,558.000,0.500,677.000,1.000,297.000,5.000,0
"03/12/08","17:03:44",28227.000,"cc",28275.096,6.00,6,0.100,25646.000,0.200,1029.000,0.300,524.000,0.500,726.000,1.000,302.000,5.000,0
"03/12/08","17:03:50",27915.000,"cc",28259.441,6.00,6,0.100,25296.000,0.200,1031.000,0.300,590.000,0.500,728.000,1.000,270.000,5.000,0
"03/12/08","17:03:56",28016.000,"cc",28321.459,6.00,6,0.100,25426.000,0.200,1048.000,0.300,493.000,0.500,730.000,1.000,319.000,5.000,0
"03/12/08","17:04:02",27819.000,"cc",28353.152,6.00,6,0.100,25267.000,0.200,994.000,0.300,531.000,0.500,735.000,1.000,292.000,5.000,0
"03/12/08","17:04:08",27948.000,"cc",28242.770,6.00,6,0.100,25382.000,0.200,982.000,0.300,569.000,0.500,733.000,1.000,282.000,5.000,0
"03/12/08","17:04:14",27648.000,"cc",28341.576,6.00,6,0.100,24949.000,0.200,1042.000,0.300,568.000,0.500,754.000,1.000,335.000,5.000,0
"03/12/08","17:04:20",27844.000,"cc",28356.961,6.00,6,0.100,25208.000,0.200,994.000,0.300,575.000,0.500,747.000,1.000,320.000,5.000,0
"03/12/08","17:04:26",27815.000,"cc",28282.428,6.00,6,0.100,25016.000,0.200,1064.000,0.300,619.000,0.500,776.000,1.000,340.000,5.000,0
"03/12/08","17:04:32",27967.000,"cc",28313.637,6.00,6,0.100,25260.000,0.200,1062.000,0.300,550.000,0.500,757.000,1.000,338.000,5.000,0
"03/12/08","17:04:38",27990.000,"cc",28311.715,6.00,6,0.100,25245.000,0.200,1087.000,0.300,548.000,0.500,780.000,1.000,330.000,5.000,0
"03/12/08","17:04:44",27885.000,"cc",28349.635,6.00,6,0.100,25233.000,0.200,985.000,0.300,577.000,0.500,798.000,1.000,292.000,5.000,0
"03/12/08","17:04:50",27926.000,"cc",28368.506,6.00,6,0.100,25244.000,0.200,1090.000,0.300,536.000,0.500,763.000,1.000,293.000,5.000,0
"03/12/08","17:04:56",27562.000,"cc",28302.553,6.00,6,0.100,24888.000,0.200,1042.000,0.300,541.000,0.500,767.000,1.000,324.000,5.000,0
"03/12/08","17:05:02",27823.000,"cc",28338.188,6.00,6,0.100,25269.000,0.200,983.000,0.300,540.000,0.500,740.000,1.000,291.000,5.000,0
"03/12/08","17:05:08",27720.000,"cc",28262.897,6.00,6,0.100,25209.000,0.200,1001.000,0.300,514.000,0.500,687.000,1.000,309.000,5.000,0
"03/12/08","17:05:14",27834.000,"cc",28296.988,6.00,6,0.100,25201.000,0.200,1055.000,0.300,586.000,0.500,699.000,1.000,293.000,5.000,0
"03/12/08","17:05:20",27528.000,"cc",28356.346,6.00,6,0.100,24915.000,0.200,971.000,0.300,537.000,0.500,792.000,1.000,313.000,5.000,0
"03/12/08","17:05:26",28026.000,"cc",28339.002,6.00,6,0.100,25394.000,0.200,1063.000,0.300,518.000,0.500,725.000,1.000,326.000,5.000,0
"03/12/08","17:05:32",27547.000,"cc",28351.111,6.00,6,0.100,24975.000,0.200,994.000,0.300,567.000,0.500,701.000,1.000,310.000,5.000,0
"03/12/08","17:05:38",27816.000,"cc",28295.254,6.00,6,0.100,25295.000,0.200,1003.000,0.300,509.000,0.500,734.000,1.000,275.000,5.000,0
"03/12/08","17:05:44",27777.000,"cc",28269.209,6.00,6,0.100,25209.000,0.200,992.000,0.300,557.000,0.500,702.000,1.000,317.000,5.000,0
"03/12/08","17:05:50",27602.000,"cc",28347.625,6.00,6,0.100,24993.000,0.200,1025.000,0.300,571.000,0.500,699.000,1.000,314.000,5.000,0
"03/12/08","17:05:56",27577.000,"cc",28274.961,6.00,6,0.100,24878.000,0.200,1036.000,0.300,559.000,0.500,778.000,1.000,326.000,5.000,0
"03/12/08","17:06:02",27959.000,"cc",28306.856,6.00,6,0.100,25228.000,0.200,1046.000,0.300,568.000,0.500,800.000,1.000,317.000,5.000,0
"03/12/08","17:06:08",27918.000,"cc",28307.086,6.00,6,0.100,25284.000,0.200,993.000,0.300,578.000,0.500,777.000,1.000,286.000,5.000,0
"03/12/08","17:06:14",27483.000,"cc",28340.404,6.00,6,0.100,24907.000,0.200,1003.000,0.300,523.000,0.500,724.000,1.000,326.000,5.000,0
"03/12/08","17:06:20",27990.000,"cc",28286.563,6.00,6,0.100,25319.000,0.200,1051.000,0.300,519.000,0.500,793.000,1.000,308.000,5.000,0
"03/12/08","17:06:26",27642.000,"cc",28284.668,6.00,6,0.100,25039.000,0.200,972.000,0.300,565.000,0.500,738.000,1.000,328.000,5.000,0
"03/12/08","17:06:32",27407.000,"cc",28265.027,6.00,6,0.100,24920.000,0.200,958.000,0.300,563.000,0.500,656.000,1.000,310.000,5.000,0
"03/12/08","17:06:38",27466.000,"cc",28366.072,6.00,6,0.100,24897.000,0.200,999.000,0.300,538.000,0.500,754.000,1.000,278.000,5.000,0
"03/12/08","17:06:44",27435.000,"cc",28275.609,6.00,6,0.100,24850.000,0.200,982.000,0.300,531.000,0.500,757.000,1.000,315.000,5.000,0
"03/12/08","17:06:50",27640.000,"cc",28424.576,6.00,6,0.100,25185.000,0.200,991.000,0.300,484.000,0.500,680.000,1.000,300.000,5.000,0
"03/12/08","17:06:56",27355.000,"cc",28287.018,6.00,6,0.100,24782.000,0.200,1024.000,0.300,519.000,0.500,724.000,1.000,306.000,5.000,0
"03/12/08","17:07:02",27727.000,"cc",28306.959,6.00,6,0.100,25167.000,0.200,1016.000,0.300,523.000,0.500,743.000,1.000,278.000,5.000,0
"03/12/08","17:07:08",27609.000,"cc",28356.898,6.00,6,0.100,24987.000,0.200,1024.000,0.300,545.000,0.500,728.000,1.000,325.000,5.000,0
"03/12/08","17:07:14",27496.000,"cc",28293.193,6.00,6,0.100,25005.000,0.200,943.000,0.300,564.000,0.500,699.000,1.000,285.000,5.000,0
"03/12/08","17:07:20",27721.000,"cc",28286.445,6.00,6,0.100,25099.000,0.200,1001.000,0.300,573.000,0.500,726.000,1.000,322.000,5.000,0
"03/12/08","17:07:26",27462.000,"cc",28298.279,6.00,6,0.100,24835.000,0.200,998.000,0.300,571.000,0.500,751.000,1.000,307.000,5.000,0
"03/12/08","17:07:32",27568.000,"cc",28354.693,6.00,6,0.100,25013.000,0.200,928.000,0.300,542.000,0.500,738.000,1.000,347.000,5.000,0
"03/12/08","17:07:38",27706.000,"cc",28322.152,6.00,6,0.100,25163.000,0.200,957.000,0.300,528.000,0.500,747.000,1.000,311.000,5.000,0
"03/12/08","17:07:44",27790.000,"cc",28354.365,6.00,6,0.100,25194.000,0.200,1055.000,0.300,494.000,0.500,754.000,1.000,293.000,5.000,0
"03/12/08","17:07:50",27253.000,"cc",28281.250,6.00,6,0.100,24706.000,0.200,960.000,0.300,539.000,0.500,716.000,1.000,332.000,5.000,0
"03/12/08","17:07:56",27503.000,"cc",28321.658,6.00,6,0.100,24879.000,0.200,1025.000,0.300,545.000,0.500,738.000,1.000,316.000,5.000,0
"03/12/08","17:08:02",27104.000,"cc",28219.272,6.00,6,0.100,24601.000,0.200,946.000,0.300,518.000,0.500,734.000,1.000,305.000,5.000,0
"03/12/08","17:08:08",28005.000,"cc",28301.176,6.00,6,0.100,25335.000,0.200,1022.000,0.300,573.000,0.500,777.000,1.000,298.000,5.000,0
"03/12/08","17:08:14",27452.000,"cc",28407.613,6.00,6,0.100,24870.000,0.200,989.000,0.300,544.000,0.500,758.000,1.000,291.000,5.000,0
"03/12/08","17:08:20",27581.000,"cc",28304.117,6.00,6,0.100,24949.000,0.200,1019.000,0.300,533.000,0.500,726.000,1.000,354.000,5.000,0
"03/12/08","17:08:26",27344.000,"cc",28351.725,6.00,6,0.100,24714.000,0.200,1032.000,0.300,574.000,0.500,716.000,1.000,308.000,5.000,0
"03/12/08","17:08:32",27450.000,"cc",28283.180,6.00,6,0.100,24889.000,0.200,1028.000,0.300,536.000,0.500,725.000,1.000,272.000,5.000,0
"03/12/08","17:08:38",27485.000,"cc",28366.773,6.00,6,0.100,24790.000,0.200,1072.000,0.300,570.000,0.500,713.000,1.000,340.000,5.000,0
"03/12/08","17:08:44",27492.000,"cc",28271.231,6.00,6,0.100,24899.000,0.200,928.000,0.300,552.000,0.500,777.000,1.000,336.000,5.000,0
"03/12/08","17:08:50",27503.000,"cc",28269.986,6.00,6,0.100,24785.000,0.200,1046.000,0.300,597.000,0.500,776.000,1.000,299.000,5.000,0
"03/12/08","17:08:56",27707.000,"cc",28308.486,6.00,6,0.100,25095.000,0.200,1026.000,0.300,563.000,0.500,718.000,1.000,305.000,5.000,0
"03/12/08","17:09:02",27899.000,"cc",28364.873,6.00,6,0.100,25138.000,0.200,1040.000,0.300,577.000,0.500,808.000,1.000,336.000,5.000,0
"03/12/08","17:09:08",27622.000,"cc",28334.043,6.00,6,0.100,24915.000,0.200,1022.000,0.300,568.000,0.500,796.000,1.000,321.000,5.000,0
"03/12/08","17:09:14",27444.000,"cc",28377.861,6.00,6,0.100,24940.000,0.200,932.000,0.300,544.000,0.500,729.000,1.000,299.000,5.000,0
"03/12/08","17:09:20",27175.000,"cc",28335.908,6.00,6,0.100,24623.000,0.200,1005.000,0.300,539.000,0.500,726.000,1.000,282.000,5.000,0
"03/12/08","17:09:26",27377.000,"cc",28303.135,6.00,6,0.100,24757.000,0.200,1027.000,0.300,570.000,0.500,730.000,1.000,293.000,5.000,0
"03/12/08","17:09:32",27213.000,"cc",28296.891,6.00,6,0.100,24733.000,0.200,977.000,0.300,485.000,0.500,704.000,1.000,314.000,5.000,0
"03/12/08","17:09:38",27957.000,"cc",28295.447,6.00,6,0.100,25310.000,0.200,1008.000,0.300,547.000,0.500,786.000,1.000,306.000,5.000,0
"03/12/08","17:09:44",27516.000,"cc",28321.404,6.00,6,0.100,24852.000,0.200,1040.000,0.300,522.000,0.500,811.000,1.000,291.000,5.000,0
"03/12/08","17:09:50",27543.000,"cc",28307.770,6.00,6,0.100,25025.000,0.200,972.000,0.300,522.000,0.500,711.000,1.000,313.000,5.000,0
"03/12/08","17:09:56",27460.000,"cc",28283.770,6.00,6,0.100,24797.000,0.200,1034.000,0.300,594.000,0.500,705.000,1.000,330.000,5.000,0
"03/12/08","17:10:02",27668.000,"cc",28239.059,6.00,6,0.100,25024.000,0.200,1024.000,0.300,564.000,0.500,762.000,1.000,294.000,5.000,0
"03/12/08","17:10:08",27305.000,"cc",28386.367,6.00,6,0.100,24720.000,0.200,1003.000,0.300,539.000,0.500,754.000,1.000,289.000,5.000,0
"03/12/08","17:10:14",27227.000,"cc",28348.041,6.00,6,0.100,24706.000,0.200,938.000,0.300,556.000,0.500,710.000,1.000,317.000,5.000,0
"03/12/08","17:10:20",27677.000,"cc",28290.436,6.00,6,0.100,24994.000,0.200,1005.000,0.300,562.000,0.500,829.000,1.000,285.000,5.000,2.000
"03/12/08","17:10:26",27500.000,"cc",28334.590,6.00,6,0.100,24971.000,0.200,988.000,0.300,521.000,0.500,728.000,1.000,292.000,5.000,0
"03/12/08","17:10:32",27473.000,"cc",28384.131,6.00,6,0.100,24938.000,0.200,990.000,0.300,530.000,0.500,690.000,1.000,325.000,5.000,0
"03/12/08","17:10:38",27297.000,"cc",28298.998,6.00,6,0.100,24692.000,0.200,978.000,0.300,579.000,0.500,728.000,1.000,320.000,5.000,0
"03/12/08","17:10:44",27317.000,"cc",28309.600,6.00,6,0.100,24672.000,0.200,1009.000,0.300,572.000,0.500,744.000,1.000,320.000,5.000,0
"03/12/08","17:10:50",27453.000,"cc",28315.438,6.00,6,0.100,24934.000,0.200,983.000,0.300,507.000,0.500,743.000,1.000,286.000,5.000,0
"03/12/08","17:10:56",27402.000,"cc",28358.525,6.00,6,0.100,24831.000,0.200,995.000,0.300,554.000,0.500,726.000,1.000,296.000,5.000,0
"03/12/08","17:11:02",27373.000,"cc",28342.865,6.00,6,0.100,24727.000,0.200,998.000,0.300,557.000,0.500,752.000,1.000,338.000,5.000,1.000
"03/12/08","17:11:08",27036.000,"cc",28317.244,6.00,6,0.100,24494.000,0.200,1014.000,0.300,582.000,0.500,692.000,1.000,254.000,5.000,0
"03/12/08","17:11:14",27470.000,"cc",28297.322,6.00,6,0.100,24896.000,0.200,953.000,0.300,576.000,0.500,756.000,1.000,289.000,5.000,0
"03/12/08","17:11:20",27600.000,"cc",28342.514,6.00,6,0.100,25000.000,0.200,991.000,0.300,570.000,0.500,736.000,1.000,303.000,5.000,0
"03/12/08","17:11:26",27323.000,"cc",28275.742,6.00,6,0.100,24756.000,0.200,974.000,0.300,529.000,0.500,745.000,1.000,319.000,5.000,0
"03/12/08","17:11:32",27701.000,"cc",28255.975,6.00,6,0.100,25114.000,0.200,931.000,0.300,574.000,0.500,767.000,1.000,315.000,5.000,0
"03/12/08","17:11:38",27304.000,"cc",28342.772,6.00,6,0.100,24743.000,0.200,987.000,0.300,545.000,0.500,713.000,1.000,316.000,5.000,0
"03/12/08","17:11:44",27531.000,"cc",28291.342,6.00,6,0.100,25007.000,0.200,928.000,0.300,536.000,0.500,758.000,1.000,302.000,5.000,0
"03/12/08","17:11:50",27783.000,"cc",28312.607,6.00,6,0.100,25157.000,0.200,1021.000,0.300,550.000,0.500,768.000,1.000,287.000,5.000,0
"03/12/08","17:11:56",27245.000,"cc",28350.232,6.00,6,0.100,24702.000,0.200,948.000,0.300,536.000,0.500,731.000,1.000,328.000,5.000,0
"03/12/08","17:12:02",27251.000,"cc",28281.469,6.00,6,0.100,24781.000,0.200,934.000,0.300,573.000,0.500,648.000,1.000,315.000,5.000,0
"03/12/08","17:12:08",27192.000,"cc",28378.168,6.00,6,0.100,24618.000,0.200,1025.000,0.300,557.000,0.500,710.000,1.000,282.000,5.000,0
"03/12/08","17:12:14",27249.000,"cc",28329.459,6.00,6,0.100,24673.000,0.200,970.000,0.300,551.000,0.500,736.000,1.000,319.000,5.000,0
"03/12/08","17:12:20",27357.000,"cc",28313.152,6.00,6,0.100,24782.000,0.200,998.000,0.300,514.000,0.500,737.000,1.000,326.000,5.000,0
"03/12/08","17:12:26",27409.000,"cc",28321.996,6.00,6,0.100,24810.000,0.200,986.000,0.300,564.000,0.500,773.000,1.000,276.000,5.000,0
"03/12/08","17:12:32",27613.000,"cc",28365.699,6.00,6,0.100,24948.000,0.200,1007.000,0.300,562.000,0.500,771.000,1.000,325.000,5.000,0
"03/12/08","17:12:38",27033.000,"cc",28259.932,6.00,6,0.100,24604.000,0.200,944.000,0.300,509.000,0.500,707.000,1.000,269.000,5.000,0
"03/12/08","17:12:44",27513.000,"cc",28309.389,6.00,6,0.100,24951.000,0.200,927.000,0.300,554.000,0.500,777.000,1.000,304.000,5.000,0
"03/12/08","17:12:50",27545.000,"cc",28301.318,6.00,6,0.100,24840.000,0.200,1028.000,0.300,575.000,0.500,772.000,1.000,330.000,5.000,0
"03/12/08","17:12:56",27395.000,"cc",28301.693,6.00,6,0.100,24772.000,0.200,1017.000,0.300,562.000,0.500,733.000,1.000,311.000,5.000,0
"03/12/08","17:13:02",27442.000,"cc",28309.336,6.00,6,0.100,24896.000,0.200,986.000,0.300,553.000,0.500,712.000,1.000,295.000,5.000,0
"03/12/08","17:13:08",27354.000,"cc",28325.840,6.00,6,0.100,24661.000,0.200,961.000,0.300,597.000,0.500,798.000,1.000,337.000,5.000,0
"03/12/08","17:13:14",27090.000,"cc",28275.193,6.00,6,0.100,24636.000,0.200,969.000,0.300,525.000,0.500,681.000,1.000,279.000,5.000,0
"03/12/08","17:13:20",27066.000,"cc",28360.522,6.00,6,0.100,24455.000,0.200,944.000,0.300,616.000,0.500,743.000,1.000,308.000,5.000,0
"03/12/08","17:13:26",27274.000,"cc",28401.473,6.00,6,0.100,24669.000,0.200,979.000,0.300,557.000,0.500,745.000,1.000,324.000,5.000,0
"03/12/08","17:13:32",27277.000,"cc",28250.701,6.00,6,0.100,24642.000,0.200,1025.000,0.300,530.000,0.500,767.000,1.000,313.000,5.000,0
"03/12/08","17:13:38",27364.000,"cc",28321.393,6.00,6,0.100,24763.000,0.200,1015.000,0.300,575.000,0.500,740.000,1.000,271.000,5.000,0
"03/12/08","17:13:44",27377.000,"cc",28296.342,6.00,6,0.100,24774.000,0.200,1005.000,0.300,520.000,0.500,764.000,1.000,314.000,5.000,0
"03/12/08","17:13:50",27487.000,"cc",28263.920,6.00,6,0.100,24957.000,0.200,992.000,0.300,522.000,0.500,699.000,1.000,317.000,5.000,0
"03/12/08","17:13:56",27555.000,"cc",28319.215,6.00,6,0.100,24862.000,0.200,1029.000,0.300,573.000,0.500,786.000,1.000,305.000,5.000,0
"03/12/08","17:14:02",27298.000,"cc",28351.922,6.00,6,0.100,24674.000,0.200,1015.000,0.300,569.000,0.500,721.000,1.000,319.000,5.000,0
"03/12/08","17:14:08",27420.000,"cc",28372.106,6.00,6,0.100,24868.000,0.200,982.000,0.300,568.000,0.500,686.000,1.000,316.000,5.000,0
"03/12/08","17:14:14",27319.000,"cc",28329.078,6.00,6,0.100,24633.000,0.200,1025.000,0.300,578.000,0.500,772.000,1.000,311.000,5.000,0
"03/12/08","17:14:20",26889.000,"cc",28340.084,6.00,6,0.100,24370.000,0.200,955.000,0.300,540.000,0.500,707.000,1.000,317.000,5.000,0
"03/12/08","17:14:26",27488.000,"cc",28350.447,6.00,6,0.100,24835.000,0.200,1007.000,0.300,587.000,0.500,747.000,1.000,312.000,5.000,0
"03/12/08","17:14:32",27314.000,"cc",28263.561,6.00,6,0.100,24721.000,0.200,981.000,0.300,565.000,0.500,758.000,1.000,289.000,5.000,0
"03/12/08","17:14:38",27206.000,"cc",28361.549,6.00,6,0.100,24530.000,0.200,1016.000,0.300,535.000,0.500,796.000,1.000,329.000,5.000,0
"03/12/08","17:14:44",27485.000,"cc",28320.830,6.00,6,0.100,24724.000,0.200,1047.000,0.300,599.000,0.500,796.000,1.000,319.000,5.000,0
"03/12/08","17:14:50",27178.000,"cc",28294.043,6.00,6,0.100,24655.000,0.200,960.000,0.300,542.000,0.500,721.000,1.000,300.000,5.000,0
"03/12/08","17:14:56",27055.000,"cc",28305.156,6.00,6,0.100,24491.000,0.200,994.000,0.300,526.000,0.500,707.000,1.000,337.000,5.000,0
"03/12/08","17:15:02",27517.000,"cc",28293.705,6.00,6,0.100,24810.000,0.200,1079.000,0.300,563.000,0.500,741.000,1.000,324.000,5.000,0
"03/12/08","17:15:08",27267.000,"cc",28271.531,6.00,6,0.100,24668.000,0.200,1017.000,0.300,518.000,0.500,766.000,1.000,298.000,5.000,0
"03/12/08","17:15:14",27219.000,"cc",28348.768,6.00,6,0.100,24705.000,0.200,977.000,0.300,538.000,0.500,691.000,1.000,308.000,5.000,0
"03/12/08","17:15:20",27214.000,"cc",28323.748,6.00,6,0.100,24612.000,0.200,994.000,0.300,560.000,0.500,749.000,1.000,299.000,5.000,0
"03/12/08","17:15:26",27398.000,"cc",28317.367,6.00,6,0.100,24875.000,0.200,988.000,0.300,549.000,0.500,697.000,1.000,289.000,5.000,0
"03/12/08","17:15:32",26754.000,"cc",28361.348,6.00,6,0.100,24266.000,0.200,932.000,0.300,535.000,0.500,736.000,1.000,285.000,5.000,0
"03/12/08","17:15:38",27095.000,"cc",28404.578,6.00,6,0.100,24567.000,0.200,966.000,0.300,533.000,0.500,730.000,1.000,299.000,5.000,0
"03/12/08","17:15:44",26869.000,"cc",28237.322,6.00,6,0.100,24374.000,0.200,987.000,0.300,528.000,0.500,690.000,1.000,290.000,5.000,0
"03/12/08","17:15:50",26934.000,"cc",28281.932,6.00,6,0.100,24415.000,0.200,945.000,0.300,543.000,0.500,733.000,1.000,298.000,5.000,0
"03/12/08","17:15:56",26982.000,"cc",28316.490,6.00,6,0.100,24545.000,0.200,888.000,0.300,517.000,0.500,724.000,1.000,308.000,5.000,0
"03/12/08","17:16:02",27166.000,"cc",28306.236,6.00,6,0.100,24582.000,0.200,920.000,0.300,551.000,0.500,794.000,1.000,319.000,5.000,0
"03/12/08","17:16:08",26807.000,"cc",28341.160,6.00,6,0.100,24230.000,0.200,976.000,0.300,539.000,0.500,759.000,1.000,303.000,5.000,0
"03/12/08","17:16:14",27112.000,"cc",28345.746,6.00,6,0.100,24482.000,0.200,1023.000,0.300,557.000,0.500,754.000,1.000,296.000,5.000,0
"03/12/08","17:16:20",27354.000,"cc",28360.106,6.00,6,0.100,24732.000,0.200,1021.000,0.300,579.000,0.500,719.000,1.000,303.000,5.000,0
"03/12/08","17:16:26",26944.000,"cc",28326.344,6.00,6,0.100,24459.000,0.200,950.000,0.300,503.000,0.500,723.000,1.000,309.000,5.000,0
"03/12/08","17:16:32",26904.000,"cc",28346.231,6.00,6,0.100,24306.000,0.200,1013.000,0.300,552.000,0.500,736.000,1.000,297.000,5.000,0
"03/12/08","17:16:38",26994.000,"cc",28285.865,6.00,6,0.100,24491.000,0.200,950.000,0.300,508.000,0.500,747.000,1.000,298.000,5.000,0